www.pogodaiklimat.ru

Погода и климат >> Архив погоды >> Саудовская Аравия >> Arar


ПОГОДА в Arar

  • Прогноз погоды в Arar
  • Монитор погоды в Arar
  • Климат города

АРХИВ ПОГОДЫ в Arar

Время (UTC), дата Ветер
(напр.,м/с)
 
Видим.   Явления Облачность Т
(С)
Тd
(С)
f
(%)
Тe
(С)
Тes
(С)
Комфортность P
(гПа)
Po
(гПа)
Тmin
(С)
Tmax
(С)
R
(мм)
R24
(мм)
S
(см)
12 12.07 ЮВ 3 10 км ясно +44.9 +17.0 20 +47 +58 опасность
перегрева
999.1 940.8
15 12.07 штиль 0 10 км ясно +42.9 +16.0 21 +44 +46 опасность
перегрева
997.7 939.3
18 12.07 штиль 0 10 км ясно +34.6 +12.0 25 +34 +34 очень
жарко
998.0 939.5 +46.1
21 12.07 СЗ 6 10 км ясно +32.8 +13.0 30 +33 +33 жарко 997.8 939.8
00 13.07 СЗ 8 10 км ясно +30.4 +12.0 32 +31 +31 жарко 997.2 939.3
03 13.07 С 4 10 км ясно +27.3 +13.0 41 +29 +29 жарко 998.2 939.8
06 13.07 С 4 10 км ясно +33.0 +17.0 38 +36 +44 очень
душно
999.6 940.9 +27.3
09 13.07 З 2 10 км ясно +41.4 +18.0 26 +45 +66 опасность
перегрева
998.7 940.6
12 13.07 З 4 10 км ясно +42.7 +18.0 24 +46 +55 опасность
перегрева
997.1 939.0
15 13.07 З 6 10 км ясно +40.9 +16.0 23 +42 +43 опасность
перегрева
996.3 937.8
18 13.07 З 6 10 км ясно +34.3 +13.0 28 +35 +35 очень
жарко
997.5 938.9 0.0 +42.7
21 13.07 З 4 10 км ясно +28.8 +9.0 29 +29 +29 жарко 997.3 939.0
00 14.07 З 5 10 км ясно +26.9 +12.0 40 +28 +28 жарко 996.7 938.4
03 14.07 СЗ 7 10 км ясно +25.3 +22.0 82 +33 +33 очень
душно
997.5 938.8
06 14.07 СЗ 7 10 км ясно +31.4 +23.0 61 +42 +44 опасность
перегрева
998.4 939.6 +25.1
09 14.07 З 5 10 км ясно +38.6 +21.0 36 +45 +56 опасность
перегрева
997.7 939.1
12 14.07 З 9 9000 м пыльный позёмок ясно +40.8 +17.0 25 +43 +44 опасность
перегрева
996.1 937.6
15 14.07 З 8 10 км ясно +39.3 +18.0 29 +43 +43 опасность
перегрева
995.1 936.4
18 14.07 З 5 10 км ясно +34.4 +17.0 36 +38 +38 очень
душно
996.3 937.4 +40.8
21 14.07 З 7 10 км ясно +31.4 +16.0 40 +34 +34 душно 996.3 938.0
00 15.07 СЗ 9 5000 м пыльный позёмок ясно +30.9 +20.0 52 +37 +37 очень
душно
995.6 937.5
03 15.07 З 6 10 км ясно +28.0 +17.0 51 +32 +32 душно 997.2 938.6
06 15.07 С 10 10 км ясно +33.5 +20.0 45 +40 +40 очень
душно
998.0 939.4 +28.0
09 15.07 З 6 10 км ясно +39.2 +18.0 29 +42 +52 опасность
перегрева
997.6 939.3
12 15.07 З 7 10 км ясно +41.0 +17.0 25 +43 +47 опасность
перегрева
996.4 938.3
15 15.07 СЗ 8 10 км ясно +38.8 +15.0 25 +40 +40 очень
душно
996.3 937.7
18 15.07 СЗ 6 10 км ясно +33.6 +13.0 29 +34 +34 очень
жарко
997.6 939.0 +41.0
21 15.07 З 4 10 км ясно +28.9 +12.0 35 +30 +30 жарко 998.0 939.4
00 16.07 СЗ 8 10 км ясно +30.0 +17.0 46 +34 +34 очень
душно
997.3 939.0
03 16.07 С 6 10 км ясно +27.2 +20.0 65 +33 +33 очень
душно
998.8 940.0
06 16.07 С 5 10 км ясно +33.6 +21.0 48 +41 +47 опасность
перегрева
999.3 940.6 +27.2
09 16.07 СЗ 2 10 км ясно +39.2 +18.0 29 +42 +64 опасность
перегрева
999.3 940.7
12 16.07 З 8 10 км ясно +40.6 +17.0 25 +43 +45 опасность
перегрева
997.6 939.3
15 16.07 СЗ 8 10 км ясно +38.6 +14.0 23 +39 +39 душно 997.9 939.1
18 16.07 З 4 10 км ясно +32.4 +13.0 31 +33 +33 жарко 998.9 940.1 +40.6
21 16.07 З 3 10 км ясно +29.9 +13.0 35 +31 +31 жарко 998.8 940.3
00 17.07 З 3 10 км ясно +26.6 +12.0 40 +28 +28 жарко 998.9 940.2
03 17.07 С 6 10 км ясно +26.1 +16.0 54 +29 +29 жарко 1000.1 941.1
06 17.07 С 8 10 км ясно +32.5 +17.0 40 +36 +38 очень
душно
1000.9 941.9 +26.1
09 17.07 СЗ 4 10 км ясно +39.6 +19.0 30 +44 +59 опасность
перегрева
1000.0 941.4
12 17.07 З 8 10 км ясно +40.3 +17.0 26 +43 +46 опасность
перегрева
998.6 939.9
15 17.07 СЗ 6 10 км ясно +38.5 +15.0 25 +40 +40 очень
душно
998.1 939.2
18 17.07 СЗ 4 10 км ясно +32.0 +12.0 29 +32 +32 жарко 999.2 940.2 +40.3
21 17.07 СЗ 3 10 км ясно +29.0 +11.0 33 +30 +30 жарко 999.0 940.4
00 18.07 С 3 10 км ясно +27.0 +12.0 39 +28 +28 жарко 998.9 940.2
03 18.07 СЗ 6 10 км ясно +25.8 +17.0 58 +30 +30 душно 1000.4 941.3
06 18.07 СЗ 7 10 км ясно +32.6 +16.0 37 +35 +39 душно 1000.8 941.8 +25.0
09 18.07 СЗ 6 10 км ясно +38.9 +19.0 32 +43 +53 опасность
перегрева
999.9 941.2
12 18.07 СЗ 7 10 км ясно +40.8 +17.0 25 +43 +47 опасность
перегрева
998.3 939.7
15 18.07 СЗ 7 10 км ясно +39.7 +16.0 25 +41 +42 опасность
перегрева
997.8 939.0
18 18.07 З 4 10 км ясно +33.4 +12.0 27 +33 +33 жарко 998.7 939.9 +41.0
21 18.07 СЗ 4 10 км ясно +28.6 +10.0 31 +29 +29 жарко 998.9 940.2
00 19.07 З 5 10 км ясно +27.6 +12.0 38 +29 +29 жарко 998.8 940.2
03 19.07 З 4 10 км ясно +24.8 +17.0 62 +29 +29 душно 1000.5 941.5
06 19.07 СВ 6 10 км ясно +33.8 +18.0 39 +38 +43 очень
душно
1001.3 942.5 +24.8

 

Местоположение метеостанции Arar (Саудовская Аравия): широта 30.90 долгота 41.13 высота над уровнем моря 549 м.

В архиве по умолчанию представлена погода в Arar за последнюю неделю. Архивные данные за месяц целиком и за предыдущие месяцы, начиная с января 2011 года, Вы можете получить, выбрав интересующий диапазон дат из раскрывающегося списка и нажав кнопку "Ввод!".


*Определитесь, кто Вы:
робот инопланетянин человек

Внимание! Время в таблицах - всемирное. Для получения местного времени необходимо прибавить поправку, которая в Arar равна 3 ч.

Смотрите также архив погоды в соседних городах и на ближайших метеорологических станциях:

Погода в Al-Jouf (Саудовская Аравия) (159 км)
Погода в Al-Nukhib (Ирак) (165 км)
Погода в Turaif (Саудовская Аравия) (244 км)
Погода в Rutbah (Ирак) (250 км)
Погода в Rafha (Саудовская Аравия) (267 км)
Погода в Najaf (Ирак) (326 км)
Погода в Ruwaished (Иордания) (329 км)
Погода в Karbalaa (Ирак) (334 км)
Погода в Ramadi (Ирак) (351 км)
Погода в Hella (Ирак) (358 км)

Пояснения к столбцам:

Ветер - указаны скорость ветра в м/с - средняя за 10 мин, порывы в срок и между сроками (в фигурных скобках) и направление, откуда дует ветер: С - северный, СВ - северо-восточный, В - восточный, ЮВ - юго-восточный, Ю - южный, ЮЗ - юго-западный, З - западный, СЗ - северо-западный.
Видимость - горизонтальная дальность видимости в метрах или километрах. При видимости от 1 до 10 км при отсутствии осадков обычно наблюдается дымка, при ухудшении видимости до 1 км и менее - туман. В сухую погоду видимость может ухудшаться дымом, пылью или мглою.
Явления - указаны атмосферные явления, наблюдавшиеся в срок или в последний час перед сроком; фигурными скобками обозначены явления, наблюдавшиеся между сроками (за 1-3 часа до срока); квадратными скобками обозначены град или гололедные отложения с указанием их диаметра в мм.
Облачность - указаны через наклонную черту общая и нижняя облачность в баллах и высота нижней границы облаков в метрах; квадратными скобками обозначены формы облаков: Ci - перистые, Cs - перисто-слоистые, Cc - перисто-кучевые, Ac - высококучевые, As - высокослоистые, Sc - слоисто-кучевые, Ns - слоисто-дождевые, Cu - кучевые, Cb - кучево-дождевые. Подробнее классификацию облаков см. в Атласе облаков (PDF).
T - Температура воздуха - температура, измеренная на высоте 2 м над землей.
Td - Температура точки росы - температура, при понижении до которой содержащийся в воздухе водяной пар достигнет насыщения.
f - Относительная влажность воздуха - влажноcть воздуха, измеренная на высоте 2 м над землей.
Te - Эффективная температура - температура, которую ощущает одетый по сезону человек в тени. Характеристика душности погоды. При расчете учитывается влияние влажности воздуха и скорости ветра на теплоощущения человека.
Tes - Эффективная температура на солнце - температура, которую ощущает человек, с поправкой на солнечный нагрев. Характеристика знойности погоды. Зависит от высоты солнца над горизонтом, облачности и скорости ветра. Ночью, в пасмурную погоду, а также при ветре 12 м/с и более поправка равна нулю.
P - Атмосферное давление - приведенное к уровню моря атмосферное давление.
Po - Атмосферное давление - измеренное на уровне метеостанции атмосферное давление.
Tmin - Минимальная температура - минимум температуры воздуха на высоте 2 м над землей.
Tmax - Максимальная температура - максимум температуры воздуха на высоте 2 м над землей.
R - Количество осадков - Количество выпавших осадков за период времени, мм. При наведении курсора мыши на число - период времени, за который выпало указанное количество осадков.
R24 - Количество осадков - Количество выпавших осадков за 24 часа, мм.
S - Снежный покров - Высота снежного покрова, см. При наведении курсора мыши на число - состояние снежного покрова и степень покрытия местности в баллах.